Hourly Data Report for October 07, 2017

All times are specified in Local Standard Time (LST). Add 1 hour to adjust for Daylight Saving Time where and when it is observed.

KITCHENER/WATERLOO
ONTARIO

43°27'39.000" N
80°22'43.000" W
321.60 m
6144239
71368
YKF

Download Data

Hourly Data (October 2017)
Hourly Data Report for October 7, 2017
Temp Definition
°C
Dew Point Temp Definition
°C
Rel Hum Definition
%
Wind Dir Definition
10's deg

Wind Spd Definition
km/h
Visibility Definition
km
Stn Press Definition
kPa
Hmdx Definition


Wind Chill Definition


Weather Definition


TIME
00:00 Legend Double Dagger 15.2 15.1 99 10 9 1.2 97.68     Fog
01:00 Legend Double Dagger 15.9 15.8 99 14 13 1.0 97.65     Rain,Fog
02:00 Legend Double Dagger 16.4 16.2 99 14 11 0.8 97.62     Rain,Fog
03:00 Legend Double Dagger 17.2 17.0 99 18 9 1.0 97.58     Rain,Fog
04:00 Legend Double Dagger 17.7 17.5 99 19 13 2.8 97.58     Rain,Fog
05:00 Legend Double Dagger 17.8 17.3 97 20 11 4.8 97.59     Rain,Fog
06:00 Legend Double Dagger 17.3 16.5 95 21 9 12.9 97.55     Rain
07:00 Legend Double Dagger 17.4 16.8 96 17 13 9.7 97.53     Fog
08:00 Legend Double Dagger 18.3 17.3 94 17 13 11.3 97.50     LegendNANA
09:00 Legend Double Dagger 18.9 17.2 90 18 18 16.1 97.51     LegendNANA
10:00 Legend Double Dagger 19.5 17.4 87 18 13 16.1 97.47     Rain
11:00 Legend Double Dagger 20.2 17.6 85 17 21 16.1 97.33 26   LegendNANA
12:00 Legend Double Dagger 22.5 17.4 72 19 18 16.1 97.25 28   LegendNANA
13:00 Legend Double Dagger 24.0 15.9 60 21 32 16.1 97.10 29   LegendNANA
14:00 Legend Double Dagger 25.3 15.6 54 20 37 16.1 97.10 30   LegendNANA
15:00 Legend Double Dagger 24.6 15.3 56 20 30 16.1 97.02 29   LegendNANA
16:00 Legend Double Dagger 24.9 14.8 53 20 32 16.1 96.97 29   LegendNANA
17:00 Legend Double Dagger 24.2 15.0 56 19 34 16.1 96.94 28   LegendNANA
18:00 Legend Double Dagger 22.7 15.3 62 18 21 16.1 96.93 27   LegendNANA
19:00 Legend Double Dagger 21.7 15.6 68 18 18 16.1 96.92 26   LegendNANA
20:00 Legend Double Dagger 21.4 16.0 71 17 18 16.1 96.86 26   LegendNANA
21:00 Legend Double Dagger 22.0 16.0 69 17 21 16.1 96.77 27   LegendNANA
22:00 Legend Double Dagger 22.6 15.8 65 17 24 16.1 96.70 27   LegendNANA
23:00 Legend Double Dagger 22.2 16.1 68 19 30 16.1 96.65 27   Rain

Notes on Data Quality.

Legend

  • E = Estimated
  • M = Missing
  • NA = Not Available
  • ‡ = Partner data that is not subject to review by the National Climate Archives
Date modified: